TimeEST,TemperatureF,Dew PointF,Humidity,Sea Level PressureIn,VisibilityMPH,Wind Direction,Wind SpeedMPH,Gust SpeedMPH,PrecipitationIn,Events,Conditions,WindDirDegrees,DateUTC
12:53 AM,46.9,45.0,93,29.99,4.0,ESE,11.5,-,0.10,Rain,Light Rain,120,2013-11-27 05:53:00
1:53 AM,48.0,46.9,96,29.94,3.0,SE,16.1,26.5,0.14,Rain,Rain,130,2013-11-27 06:53:00
2:53 AM,50.0,48.0,93,29.86,3.0,ESE,18.4,21.9,0.08,Rain,Light Rain,120,2013-11-27 07:53:00
3:53 AM,50.0,48.9,96,29.77,6.0,SE,18.4,32.2,0.07,Rain,Light Rain,130,2013-11-27 08:53:00
4:33 AM,50.0,48.9,96,29.74,6.0,SE,17.3,-,0.04,Rain,Light Rain,130,2013-11-27 09:33:00
4:53 AM,51.1,48.9,92,29.69,5.0,SE,16.1,28.8,0.05,Rain,Light Rain,130,2013-11-27 09:53:00
5:49 AM,51.8,50.0,94,29.63,3.0,SE,18.4,33.4,0.09,Rain,Rain,140,2013-11-27 10:49:00
5:53 AM,52.0,50.0,93,29.61,3.0,SE,18.4,33.4,0.10,Rain,Rain,140,2013-11-27 10:53:00
6:11 AM,52.0,50.0,93,29.58,2.5,SE,21.9,34.5,0.03,Rain,Rain,130,2013-11-27 11:11:00
6:36 AM,52.0,51.1,97,29.54,3.0,SE,21.9,36.8,0.07,Rain,Light Rain,140,2013-11-27 11:36:00
6:45 AM,52.0,51.1,97,29.53,2.5,SE,23.0,35.7,0.08,Rain,Light Rain,140,2013-11-27 11:45:00
6:53 AM,53.1,51.1,93,29.51,2.5,SSE,24.2,33.4,0.09,Rain,Light Rain,150,2013-11-27 11:53:00
7:53 AM,54.0,53.1,97,29.46,1.2,SSE,15.0,29.9,0.04,Rain,Light Rain,160,2013-11-27 12:53:00
8:03 AM,55.0,53.1,93,29.46,2.0,SSE,13.8,24.2,0.02,Rain,Rain,160,2013-11-27 13:03:00
8:32 AM,57.0,55.0,93,29.43,2.0,SSE,18.4,27.6,0.08,Rain,Rain,160,2013-11-27 13:32:00
8:53 AM,59.0,57.0,93,29.41,2.0,South,21.9,29.9,0.14,Rain,Rain,170,2013-11-27 13:53:00
9:53 AM,60.1,57.9,93,29.38,1.5,South,18.4,29.9,0.16,Rain,Light Rain,170,2013-11-27 14:53:00
10:46 AM,61.0,59.0,93,29.34,3.0,South,21.9,28.8,0.05,Rain,Light Rain,180,2013-11-27 15:46:00
10:53 AM,61.0,59.0,93,29.32,2.5,South,19.6,33.4,0.05,Rain,Light Rain,180,2013-11-27 15:53:00
11:53 AM,60.1,59.0,96,29.30,2.5,South,12.7,-,0.07,Rain,Heavy Rain,180,2013-11-27 16:53:00
12:29 PM,61.0,59.0,93,29.31,2.0,South,15.0,20.7,0.28,Rain,Heavy Rain,180,2013-11-27 17:29:00
12:37 PM,61.0,59.0,93,29.31,1.5,South,12.7,-,0.34,Rain,Heavy Rain,180,2013-11-27 17:37:00
12:53 PM,61.0,60.1,97,29.29,1.5,South,9.2,-,0.45,Rain,Heavy Rain,170,2013-11-27 17:53:00
1:16 PM,61.0,60.1,97,29.28,1.5,South,6.9,-,0.09,Rain,Rain,190,2013-11-27 18:16:00
1:53 PM,61.0,60.1,97,29.22,3.0,SSE,6.9,-,0.14,Rain,Rain,160,2013-11-27 18:53:00
2:07 PM,61.0,60.1,97,29.22,8.0,SSE,6.9,-,0.01,Rain,Light Rain,150,2013-11-27 19:07:00
2:53 PM,60.1,59.0,96,29.21,9.0,South,8.1,-,0.02,Rain,Light Rain,180,2013-11-27 19:53:00
3:12 PM,60.1,59.0,96,29.23,9.0,SSW,5.8,-,0.00,Rain,Light Rain,210,2013-11-27 20:12:00
3:35 PM,60.1,59.0,96,29.20,5.0,South,5.8,-,0.02,Rain,Light Rain,190,2013-11-27 20:35:00
3:39 PM,60.1,59.0,96,29.21,6.0,SSW,4.6,-,0.02,Rain,Light Rain,210,2013-11-27 20:39:00
3:53 PM,54.0,52.0,93,29.23,8.0,NW,13.8,-,0.03,Rain,Light Rain,310,2013-11-27 20:53:00
4:02 PM,53.1,50.0,89,29.24,9.0,NW,10.4,20.7,0.00,Rain,Light Rain,310,2013-11-27 21:02:00
4:19 PM,52.0,48.9,89,29.23,10.0,WNW,9.2,-,0.00,Rain,Light Rain,300,2013-11-27 21:19:00
4:53 PM,51.1,48.0,89,29.22,10.0,NW,9.2,-,0.00,,Overcast,310,2013-11-27 21:53:00
5:15 PM,51.1,48.0,89,29.23,10.0,NW,8.1,-,N/A,,Overcast,310,2013-11-27 22:15:00
5:51 PM,50.0,48.2,94,29.23,10.0,WNW,8.1,-,0.01,Rain,Light Rain,290,2013-11-27 22:51:00
5:53 PM,50.0,48.0,93,29.22,10.0,WNW,10.4,-,0.01,Rain,Light Rain,290,2013-11-27 22:53:00
6:07 PM,50.0,46.9,89,29.23,9.0,WNW,9.2,-,0.01,Rain,Light Rain,300,2013-11-27 23:07:00
6:53 PM,46.9,45.0,93,29.22,10.0,WNW,8.1,-,0.06,Rain,Light Rain,300,2013-11-27 23:53:00
7:07 PM,46.9,44.1,90,29.21,10.0,WNW,12.7,-,0.00,Rain,Light Rain,300,2013-11-28 00:07:00
7:46 PM,45.0,42.1,90,29.23,10.0,WNW,11.5,20.7,0.01,Rain,Light Rain,290,2013-11-28 00:46:00
7:53 PM,45.0,42.1,90,29.23,10.0,WNW,13.8,20.7,0.01,Rain,Light Rain,290,2013-11-28 00:53:00
8:01 PM,44.1,41.0,89,29.24,10.0,WNW,17.3,23.0,0.00,Rain,Light Rain,290,2013-11-28 01:01:00
8:53 PM,42.1,37.9,85,29.29,10.0,WNW,17.3,26.5,0.01,,Overcast,300,2013-11-28 01:53:00
9:07 PM,42.1,37.0,82,29.31,10.0,WNW,17.3,29.9,0.01,Rain,Light Rain,300,2013-11-28 02:07:00
9:53 PM,39.9,35.1,83,29.29,10.0,NW,16.1,25.3,0.01,,Mostly Cloudy,310,2013-11-28 02:53:00
10:53 PM,39.0,32.0,76,29.34,10.0,WNW,16.1,24.2,N/A,,Partly Cloudy,300,2013-11-28 03:53:00
11:53 PM,37.9,30.9,76,29.40,10.0,West,10.4,20.7,N/A,,Mostly Cloudy,270,2013-11-28 04:53:00